Tracking 20232 objects as of 18-Jan-2020
HD Live streaming from Space Station
objects crossing your sky now

MOS 1B (MOMO 1B)

Track MOS 1B (MOMO 1B) now!
10-day predictions
MOS 1B (MOMO 1B) is classified as:


NORAD ID: 20478
Int'l Code: 1990-013A
Perigee: 912.0 km
Apogee: 921.2 km
Inclination: 99.4 °
Period: 103.2 minutes
Semi major axis: 7287 km
RCS: 3.7354 m2 (large)
Launch date: February 7, 1990
Source: Japan (JPN)
Launch site: TANEGASHIMA SPACE CENTER (TNSTA)
aabbcc
Your satellite tracking list
Your tracking list is empty




NASA's NSSDC Master Catalog

Two Line Element Set (TLE):
1 20478U 90013A   20018.11665627  .00000189  00000-0  17358-3 0  9994
2 20478  99.4111  10.8392 0006305  63.1566 297.0238 13.95494600445535
Source of the keplerian elements: AFSPC